User: anonymous   Login
Location: Oberwangen
(47.4286°N, 8.9679°E)
Time: 21:00:39
(UTC+00:00)
Language:

Cosmos 1816 Rocket - Orbit

View from above orbital plane
View from above orbital plane
View from above satellite
View from above satellite

Ground track
Ground track

The orbit data is extracted from the following two-line orbital elements,

1 17360U 87009B   21271.54241490  .00000039  00000-0  24272-4 0  9996
2 17360  82.9229 181.8465 0033274 135.4003  38.1276 13.76760124741241
Epoch (UTC): 28 September 2021 13:01:04
Eccentricity: 0.0033274
inclination: 82.9229°
perigee height: 951 km
apogee height: 1000 km
right ascension of ascending node: 181.8465°
argument of perigee: 135.4003°
revolutions per day: 13.76760124
mean anomaly at epoch: 38.1276°
orbit number at epoch: 74124

The dashed part of the orbit path shows where the satellite is in the earth's shadow,  

DLR